[[{"header":{"parameterUnit":"m.s-1","parameterCategory":1,"la1":30.2991,"la2":30.254,"lo1":-89.0895,"lo2":-89.0444,"dy":0.0017,"dx":0.0017,"nx":28,"ny":28,"refTime":"2025-08-21T21:00:00:Z","depth":0,"parameterNumber":2,"parameterNumberName":"U-component_of_WINDS"},"data":[0,0,0,0,0,0,0,0,0,0,0,0,0,0,0,0,0,0,0,0,0,0,0,0,0,0,0,0,0,0,0,0,0,0,0,0,0,0,0,0,0,0,0,0,0,0,0,0,0,0,0,0,0,0,0,0,0,0,0.3287,0.3288,0,0.3339,0.334,0.3341,0.3401,0.3402,0.3403,0.3404,0.3457,0.3458,0.3458,0,0,0,0,0,0,0,0,0,0,0,0,0,0.3241,0.3242,0.3287,0.3288,0.3289,0.3339,0.334,0.3341,0.3401,0.3402,0.3403,0.3404,0.3457,0.3458,0.3458,0,0,0,0,0,0,0,0,0,0,0,0,0,0.3274,0.3242,0.3287,0.3325,0.3329,0.3339,0.334,0.3341,0.3401,0.3402,0.3404,0.3405,0.3457,0.3458,0.3458,0.3436,0,0,0.3461,0.3461,0,0,0,0,0,0,0,0,0.3272,0.3275,0.3319,0.3322,0.3327,0.3365,0.3343,0.3373,0.3401,0.3373,0.3404,0.3406,0.3425,0.3429,0.3436,0.3438,0.3441,0.3461,0.3462,0.3462,0.3462,0,0,0,0,0,0,0,0.327,0.3274,0.3308,0.3319,0.3324,0.3339,0.3346,0.3349,0.3391,0.3376,0.338,0.3386,0.3428,0.3435,0.3437,0.3442,0.3461,0.3462,0.3462,0.3463,0.343,0.3429,0,0,0,0,0,0,0.3262,0.3271,0.3306,0.331,0.3302,0.3339,0.3346,0.3351,0.3391,0.3399,0.3385,0.3388,0.3433,0.3436,0.344,0.3417,0.3462,0.3463,0.3463,0.3431,0.343,0.3428,0,0,0,0,0,0,0.326,0.3264,0.3304,0.3292,0.3298,0.3338,0.3344,0.3352,0.3359,0.3398,0.3406,0.3384,0.3434,0.3438,0.3437,0.3419,0.3463,0.3464,0.3433,0.3431,0.3429,0.337,0,0,0,0,0,0,0.3259,0.3263,0.3255,0.3291,0.3298,0.33,0.3343,0.3352,0.336,0.3365,0.3399,0.3406,0.3435,0.3435,0.3438,0.3421,0.3465,0.3435,0.3432,0.343,0.3373,0.3366,0.336,0,0,0,0,0,0.3257,0.3236,0.3254,0.3258,0.3289,0.3299,0.3303,0.3337,0.3358,0.335,0.3376,0.3405,0.3421,0.3434,0.3438,0.3421,0.3436,0.3433,0.343,0.3377,0.3367,0.336,0,0,0,0,0,0,0.3196,0.3241,0.3262,0.3252,0.3271,0.3309,0.33,0.3326,0.334,0.3344,0.3386,0.3394,0.3387,0.3404,0.3419,0.3402,0.3433,0.343,0.3391,0.3383,0.3376,0.3372,0.3465,0,0,0,0,0,0.3182,0.3186,0.3225,0.3213,0.3221,0.3259,0.3265,0.3289,0.3311,0.3319,0.3345,0.3364,0.3374,0.338,0.339,0.3377,0.3385,0.3367,0.336,0.3354,0.3351,0.3346,0.3339,0.3418,0.3418,0.3418,0,0,0.3152,0.3177,0.3177,0.3201,0.3219,0.3223,0.3265,0.3267,0.3271,0.332,0.332,0.3339,0.3364,0.3356,0.3354,0.337,0.3331,0.335,0.3345,0.3346,0.3342,0.3335,0.3328,0.3416,0.3416,0.3417,0,0,0.3099,0.3118,0.311,0.3127,0.3154,0.3179,0.3177,0.3212,0.3226,0.3227,0.3264,0.3269,0.3285,0.3302,0.3312,0.3267,0.3295,0.3269,0.3233,0.3227,0.3221,0.3216,0.32,0.3194,0.3266,0.3266,0.3266,0,0.3058,0.3065,0.3103,0.3103,0.3113,0.3158,0.315,0.3165,0.3194,0.32,0.3218,0.3239,0.3259,0.3256,0.3245,0.3252,0.3252,0.3265,0.3219,0.3214,0.321,0.3195,0.3189,0.3263,0.3263,0.3264,0.3264,0,0.3014,0.3019,0.3009,0.3036,0.3045,0.3041,0.3079,0.3083,0.3108,0.3131,0.3132,0.3158,0.3175,0.3177,0.32,0.3177,0.3187,0.3211,0.3242,0.3198,0.3185,0.318,0.3259,0.326,0.3261,0.3261,0,0,0.2924,0.2972,0.2968,0.2981,0.3015,0.3019,0.3018,0.3035,0.3038,0.3057,0.3057,0.307,0.3093,0.3105,0.3131,0.3126,0.309,0.3152,0.3153,0.314,0.3067,0.3049,0.3042,0.3109,0.3108,0.3107,0.3065,0,0.2877,0.2877,0.2912,0.2903,0.2908,0.2951,0.295,0.2971,0.2993,0.3001,0.3026,0.3034,0.3064,0.3072,0.3069,0.3095,0.3076,0.3098,0.311,0.311,0.3102,0.3035,0.3015,0.2974,0.3061,0.306,0.3059,0,0.2822,0.2838,0.283,0.2864,0.2868,0.2866,0.2885,0.2892,0.2917,0.2934,0.2947,0.2977,0.2979,0.3009,0.3013,0.3027,0.3034,0.3048,0.3047,0.3049,0.3081,0.3036,0.2962,0.2956,0.3052,0.3052,0.3053,0,0.2758,0.2777,0.2775,0.2785,0.2825,0.2823,0.2839,0.2865,0.2874,0.2891,0.2897,0.2914,0.2923,0.2936,0.297,0.2988,0.297,0.3002,0.2984,0.2983,0.2978,0.2978,0.2905,0.2982,0.2982,0.2982,0.2982,0,0.2702,0.2695,0.2746,0.2745,0.2739,0.2778,0.2771,0.2793,0.2815,0.2819,0.2858,0.2861,0.2906,0.2914,0.294,0.294,0.2943,0.2957,0.2965,0.2954,0.2952,0.2959,0.2963,0.2981,0.2981,0.2981,0.2982,0,0.2628,0.2662,0.2662,0.2701,0.271,0.2704,0.2737,0.2738,0.2763,0.2767,0.2771,0.281,0.2822,0.2857,0.2878,0.2896,0.2887,0.2901,0.2879,0.2884,0.2864,0.2865,0.2792,0.2785,0.2866,0.2866,0.2865,0,0.259,0.2586,0.2624,0.263,0.2645,0.2653,0.2662,0.2701,0.2709,0.2738,0.2735,0.275,0.2764,0.2781,0.2811,0.2828,0.2842,0.2815,0.2845,0.2834,0.2842,0.2842,0.2842,0.2809,0.2808,0.2807,0.2806,0,0.2519,0.2537,0.2548,0.2566,0.2576,0.2592,0.261,0.2612,0.2657,0.2664,0.2676,0.2687,0.2709,0.2723,0.2744,0.2762,0.2792,0.2797,0.2794,0.2783,0.277,0.2777,0.2862,0.2798,0.2799,0.28,0.28,0.28,0.2463,0.2461,0.2488,0.25,0.2518,0.2535,0.2537,0.2563,0.2574,0.2595,0.2618,0.2628,0.2654,0.2686,0.2701,0.271,0.2726,0.2721,0.272,0.2718,0.2713,0.2769,0.2714,0.2715,0.2715,0.2715,0.2715,0,0.2394,0.2414,0.2424,0.2449,0.2459,0.2486,0.2508,0.2514,0.2522,0.2544,0.2557,0.2572,0.2587,0.2619,0.2637,0.2638,0.2652,0.2641,0.2642,0.2645,0.2698,0.2699,0.263,0.263,0.263,0.263,0.263,0.263,0.2359,0.2359,0.2379,0.2389,0.2409,0.2419,0.2429,0.2445,0.2463,0.2478,0.249,0.2511,0.2538,0.2558,0.2573,0.2582,0.2587,0.2572,0.2585,0.2634,0.2642,0.2649,0.2651,0.2572,0.2572,0.2532,0.2532,0.2532]},{"header":{"parameterUnit":"m.s-1","parameterCategory":1,"la1":30.2991,"la2":30.254,"lo1":-89.0895,"lo2":-89.0444,"dy":0.0017,"dx":0.0017,"nx":28,"ny":28,"refTime":"2025-08-21T21:00:00:Z","depth":0,"parameterNumber":3,"parameterNumberName":"V-component_of_WINDS"},"data":[0,0,0,0,0,0,0,0,0,0,0,0,0,0,0,0,0,0,0,0,0,0,0,0,0,0,0,0,0,0,0,0,0,0,0,0,0,0,0,0,0,0,0,0,0,0,0,0,0,0,0,0,0,0,0,0,0,0,-0.9016,-0.9016,0,-0.9044,-0.9044,-0.9044,-0.9027,-0.9026,-0.9025,-0.9024,-0.9052,-0.9054,-0.9055,0,0,0,0,0,0,0,0,0,0,0,0,0,-0.8948,-0.8949,-0.9016,-0.9016,-0.9017,-0.9044,-0.9044,-0.9045,-0.9027,-0.9026,-0.9025,-0.9024,-0.9052,-0.9054,-0.9055,0,0,0,0,0,0,0,0,0,0,0,0,0,-0.8977,-0.8949,-0.9016,-0.9011,-0.9011,-0.9044,-0.9044,-0.9045,-0.9027,-0.9026,-0.9025,-0.9024,-0.9051,-0.9053,-0.9056,-0.9094,0,0,-0.9063,-0.9064,0,0,0,0,0,0,0,0,-0.8975,-0.8979,-0.9012,-0.9012,-0.9012,-0.9031,-0.903,-0.9061,-0.9028,-0.9021,-0.9024,-0.9023,-0.9046,-0.9049,-0.9057,-0.9096,-0.9097,-0.9063,-0.9064,-0.9065,-0.9066,0,0,0,0,0,0,0,-0.8973,-0.8978,-0.9027,-0.9012,-0.9012,-0.9008,-0.901,-0.9036,-0.904,-0.9022,-0.902,-0.9024,-0.9046,-0.9054,-0.9057,-0.9097,-0.9063,-0.9065,-0.9066,-0.9067,-0.917,-0.9171,0,0,0,0,0,0,-0.8971,-0.8976,-0.9026,-0.9028,-0.899,-0.901,-0.9013,-0.9026,-0.904,-0.9041,-0.9025,-0.9023,-0.9051,-0.9055,-0.9058,-0.9105,-0.9065,-0.9067,-0.9069,-0.9169,-0.917,-0.9172,0,0,0,0,0,0,-0.897,-0.8976,-0.9025,-0.9002,-0.9008,-0.9012,-0.9027,-0.9027,-0.9036,-0.9042,-0.9043,-0.9033,-0.905,-0.9055,-0.9086,-0.9106,-0.9068,-0.907,-0.9167,-0.9169,-0.9171,-0.9198,0,0,0,0,0,0,-0.8968,-0.8976,-0.899,-0.9002,-0.9009,-0.9052,-0.9028,-0.9028,-0.904,-0.9037,-0.905,-0.9051,-0.905,-0.9082,-0.9088,-0.9108,-0.9072,-0.9165,-0.9168,-0.917,-0.9196,-0.9201,-0.9206,0,0,0,0,0,-0.8966,-0.8997,-0.8991,-0.8997,-0.9028,-0.9054,-0.9057,-0.9055,-0.9041,-0.9056,-0.9061,-0.9051,-0.9102,-0.9086,-0.9092,-0.9113,-0.9164,-0.9167,-0.917,-0.9193,-0.92,-0.9206,0,0,0,0,0,0,-0.8987,-0.8998,-0.8992,-0.9028,-0.904,-0.9051,-0.9069,-0.9062,-0.9078,-0.9076,-0.9072,-0.9075,-0.9108,-0.9113,-0.9094,-0.9151,-0.9131,-0.9135,-0.9147,-0.9153,-0.9158,-0.9156,-0.9074,0,0,0,0,0,-0.8996,-0.9016,-0.9025,-0.9055,-0.9062,-0.9065,-0.9076,-0.9073,-0.9085,-0.909,-0.9097,-0.9109,-0.9128,-0.9141,-0.9158,-0.9196,-0.9199,-0.9214,-0.9219,-0.9223,-0.9227,-0.9248,-0.9255,-0.9182,-0.9182,-0.9182,0,0,-0.9014,-0.9023,-0.9036,-0.906,-0.9069,-0.909,-0.9069,-0.9092,-0.9108,-0.9094,-0.9124,-0.9129,-0.9142,-0.9177,-0.9192,-0.9182,-0.9247,-0.9227,-0.923,-0.9232,-0.9252,-0.9259,-0.9265,-0.9184,-0.9184,-0.9183,0,0,-0.9059,-0.9067,-0.9094,-0.9104,-0.9118,-0.9119,-0.9126,-0.9138,-0.9141,-0.917,-0.9161,-0.9179,-0.9212,-0.9222,-0.9231,-0.928,-0.9271,-0.9286,-0.9312,-0.9333,-0.9338,-0.9343,-0.9361,-0.9368,-0.9289,-0.929,-0.929,0,-0.908,-0.9112,-0.9109,-0.9133,-0.9144,-0.9132,-0.916,-0.9169,-0.9188,-0.9196,-0.9185,-0.9226,-0.9234,-0.9271,-0.9283,-0.9291,-0.9298,-0.9284,-0.9338,-0.9343,-0.9347,-0.9365,-0.9371,-0.9291,-0.9291,-0.9291,-0.9291,0,-0.9137,-0.916,-0.918,-0.9199,-0.9212,-0.9237,-0.9239,-0.9252,-0.9248,-0.9251,-0.9282,-0.9291,-0.9311,-0.9319,-0.9316,-0.9356,-0.935,-0.9338,-0.9318,-0.9356,-0.9372,-0.9379,-0.9294,-0.9293,-0.9293,-0.9292,0,0,-0.9197,-0.9214,-0.9222,-0.923,-0.9245,-0.9262,-0.9287,-0.9307,-0.9319,-0.9332,-0.9353,-0.9381,-0.9371,-0.9381,-0.9379,-0.9397,-0.9436,-0.9383,-0.9383,-0.9393,-0.9481,-0.9491,-0.9498,-0.943,-0.9431,-0.9432,-0.9481,0,-0.9243,-0.9287,-0.9285,-0.9327,-0.9347,-0.9337,-0.9359,-0.937,-0.9373,-0.9391,-0.9395,-0.9415,-0.9399,-0.9405,-0.9423,-0.9427,-0.9453,-0.9423,-0.945,-0.9451,-0.9448,-0.9507,-0.9517,-0.9562,-0.9487,-0.9488,-0.9489,0,-0.9303,-0.9319,-0.9362,-0.9374,-0.9383,-0.9403,-0.9421,-0.9438,-0.9451,-0.9452,-0.9464,-0.9458,-0.9484,-0.9462,-0.9498,-0.9477,-0.9488,-0.9492,-0.9493,-0.9496,-0.9473,-0.9512,-0.9576,-0.9584,-0.9498,-0.9498,-0.9497,0,-0.9343,-0.9375,-0.9405,-0.9413,-0.9428,-0.9442,-0.9449,-0.946,-0.9472,-0.9488,-0.9496,-0.9514,-0.9524,-0.9538,-0.9538,-0.9522,-0.9574,-0.9552,-0.9576,-0.9576,-0.9588,-0.9587,-0.9655,-0.9593,-0.9593,-0.9593,-0.9593,0,-0.9395,-0.9422,-0.9424,-0.9442,-0.9473,-0.947,-0.95,-0.9505,-0.9516,-0.9535,-0.9527,-0.9545,-0.9543,-0.9562,-0.9562,-0.9591,-0.9596,-0.9597,-0.9597,-0.9599,-0.9599,-0.9606,-0.9603,-0.9595,-0.9594,-0.9594,-0.9594,0,-0.9445,-0.9447,-0.9479,-0.9491,-0.9494,-0.9516,-0.9526,-0.9543,-0.9546,-0.9571,-0.9577,-0.9581,-0.9602,-0.9603,-0.9628,-0.9628,-0.9664,-0.966,-0.966,-0.9659,-0.9683,-0.9681,-0.9759,-0.977,-0.97,-0.9701,-0.9701,0,-0.9479,-0.9499,-0.9513,-0.9526,-0.9533,-0.9554,-0.9566,-0.9564,-0.9578,-0.9594,-0.961,-0.9631,-0.9647,-0.9682,-0.9687,-0.9706,-0.9703,-0.9729,-0.9706,-0.9707,-0.9704,-0.9703,-0.9706,-0.9734,-0.9735,-0.9735,-0.9736,0,-0.9538,-0.9538,-0.9557,-0.9576,-0.9591,-0.9605,-0.9619,-0.963,-0.963,-0.9645,-0.9667,-0.968,-0.9705,-0.9726,-0.9745,-0.9751,-0.9744,-0.9743,-0.9749,-0.9752,-0.9751,-0.9753,-0.9673,-0.9741,-0.9741,-0.974,-0.974,-0.974,-0.9582,-0.96,-0.9613,-0.9634,-0.9644,-0.9657,-0.9674,-0.9679,-0.9698,-0.9718,-0.9716,-0.9741,-0.9753,-0.9777,-0.9785,-0.9805,-0.9796,-0.9805,-0.9807,-0.981,-0.9813,-0.9748,-0.9808,-0.9808,-0.9807,-0.9807,-0.9807,0,-0.9642,-0.965,-0.9669,-0.9688,-0.9705,-0.9696,-0.9711,-0.9725,-0.9747,-0.9759,-0.9776,-0.9801,-0.9822,-0.9828,-0.9848,-0.9862,-0.9859,-0.9868,-0.9867,-0.9869,-0.982,-0.9812,-0.987,-0.987,-0.987,-0.987,-0.987,-0.987,-0.9675,-0.9706,-0.9707,-0.9743,-0.975,-0.9775,-0.9784,-0.9796,-0.9806,-0.9835,-0.9852,-0.9856,-0.9866,-0.9887,-0.9905,-0.9906,-0.9914,-0.9924,-0.9924,-0.9878,-0.9872,-0.9866,-0.9859,-0.9926,-0.9926,-0.9972,-0.9972,-0.9972]}]]